[[{"header":{"parameterUnit":"m.s-1","parameterCategory":1,"la1":30.2991,"la2":30.254,"lo1":-89.0895,"lo2":-89.0444,"dx":0.0017,"dy":0.0017,"nx":28,"ny":28,"refTime":"2022-11-16T15:00:00:Z","depth":0,"parameterNumber":2,"parameterNumberName":"U-component_of_WINDS"},"data":[0,0,0,0,0,0,0,0,0,0,0,0,0,0,0,0,0,0,0,0,0,0,0,0,0,0,0,0,0,0,0,0,0,0,0,0,0,0,0,0,0,0,0,0,0,0,0,0,0,0,0,0,0,0,0,0,0,0,1.0226,1.0225,0,1.0189,1.0188,1.0188,1.0189,1.0189,1.019,1.019,1.015,1.0148,1.0147,0,0,0,0,0,0,0,0,0,0,0,0,0,1.0294,1.0293,1.0226,1.0225,1.0225,1.0189,1.0188,1.0188,1.0189,1.0189,1.019,1.019,1.015,1.0149,1.0147,0,0,0,0,0,0,0,0,0,0,0,0,0,1.0262,1.0293,1.0226,1.0221,1.022,1.0189,1.0188,1.0188,1.0188,1.0189,1.019,1.0191,1.0151,1.0149,1.0147,1.0117,0,0,1.014,1.0139,0,0,0,0,0,0,0,0,1.0263,1.0259,1.0222,1.0221,1.022,1.0194,1.0198,1.0164,1.0188,1.02,1.019,1.0191,1.0164,1.0161,1.0152,1.0116,1.0114,1.0139,1.0138,1.0137,1.0136,0,0,0,0,0,0,0,1.0266,1.0261,1.0211,1.0221,1.022,1.022,1.0216,1.0192,1.0178,1.0199,1.0199,1.0195,1.0164,1.0154,1.0151,1.0113,1.0139,1.0137,1.0136,1.0135,1.0051,1.005,0,0,0,0,0,0,1.0269,1.0263,1.0212,1.021,1.0244,1.0218,1.0214,1.0202,1.0179,1.0176,1.0194,1.0195,1.0158,1.0154,1.015,1.0113,1.0137,1.0135,1.0134,1.0051,1.005,1.0049,0,0,0,0,0,0,1.0271,1.0265,1.0214,1.0236,1.023,1.0216,1.0202,1.0201,1.0191,1.0175,1.0172,1.0187,1.0158,1.0153,1.0125,1.0112,1.0134,1.0132,1.0052,1.0051,1.005,1.004,0,0,0,0,0,0,1.0273,1.0265,1.0254,1.0236,1.0229,1.0191,1.0202,1.0199,1.0188,1.0188,1.0168,1.0165,1.0158,1.0129,1.0123,1.0109,1.013,1.0054,1.0052,1.005,1.0042,1.0039,1.0036,0,0,0,0,0,1.0275,1.0253,1.0254,1.0248,1.0215,1.019,1.0185,1.0179,1.0186,1.0175,1.0165,1.0166,1.0115,1.0126,1.012,1.0105,1.0054,1.0052,1.005,1.0043,1.0039,1.0036,0,0,0,0,0,0,1.0269,1.025,1.0251,1.0222,1.0208,1.019,1.0175,1.0176,1.0158,1.0159,1.0151,1.0147,1.0119,1.0109,1.0122,1.0075,1.0085,1.0082,1.0082,1.0078,1.0076,1.0078,1.0128,0,0,0,0,0,1.0265,1.0247,1.0231,1.0207,1.02,1.0189,1.0178,1.0174,1.0158,1.0152,1.014,1.0124,1.0104,1.0091,1.0072,1.0041,1.0036,1.0028,1.0025,1.0023,1.0019,1.0001,0.9997,1.0043,1.0043,1.0043,0,0,1.0254,1.0242,1.0231,1.0205,1.0194,1.0174,1.0184,1.0163,1.0148,1.0149,1.0122,1.0112,1.0094,1.0065,1.0051,1.0056,1.0006,1.002,1.0019,1.0016,0.9999,0.9995,0.9991,1.0042,1.0042,1.0042,0,0,1.0226,1.0216,1.0194,1.0182,1.0165,1.0158,1.0153,1.0135,1.0129,1.0102,1.0102,1.0085,1.0051,1.0038,1.0027,0.9995,0.9994,0.9989,0.9974,0.9956,0.9953,0.9949,0.9936,0.9932,0.9986,0.9986,0.9986,0,1.0215,1.0187,1.0183,1.0162,1.015,1.0151,1.0129,1.0117,1.0094,1.0086,1.0092,1.005,1.0038,1.0005,0.9997,0.9989,0.9982,0.999,0.9954,0.995,0.9947,0.9935,0.993,0.9985,0.9985,0.9985,0.9985,0,1.0174,1.0154,1.0139,1.0117,1.0104,1.0083,1.0075,1.0062,1.006,1.0052,1.0025,1.0011,0.9989,0.9981,0.9979,0.9948,0.9951,0.9956,0.9965,0.9942,0.993,0.9926,0.9984,0.9984,0.9985,0.9985,0,0,1.0138,1.0116,1.011,1.01,1.0081,1.0066,1.0044,1.0024,1.0012,0.9997,0.9978,0.995,0.9954,0.9942,0.9938,0.9923,0.9897,0.993,0.9929,0.9923,0.986,0.9855,0.985,0.9898,0.9897,0.9896,0.9861,0,1.0107,1.0069,1.0065,1.0031,1.0012,1.0013,0.9995,0.9981,0.9973,0.9956,0.9948,0.9928,0.9936,0.9928,0.9914,0.9903,0.9884,0.9906,0.9878,0.9878,0.9881,0.9844,0.9839,0.9806,0.9857,0.9856,0.9856,0,1.0064,1.0048,1.0012,0.9996,0.9988,0.9971,0.9952,0.9936,0.992,0.9915,0.9902,0.9901,0.9878,0.9891,0.9858,0.9873,0.9862,0.9856,0.9854,0.985,0.9863,0.9836,0.9796,0.979,0.9848,0.9849,0.985,0,1.0039,1.0009,0.9983,0.9975,0.9956,0.9944,0.9936,0.9921,0.9909,0.9892,0.9884,0.9864,0.9853,0.9838,0.9831,0.9841,0.9799,0.9811,0.9793,0.9793,0.9782,0.9783,0.9737,0.9779,0.9779,0.9779,0.9779,0,1.0003,0.998,0.9972,0.9956,0.9931,0.9927,0.9902,0.9894,0.9881,0.9863,0.9864,0.9846,0.984,0.9821,0.9816,0.9789,0.9785,0.978,0.9778,0.9778,0.9779,0.9769,0.977,0.9778,0.9778,0.9778,0.9779,0,0.997,0.9964,0.9936,0.9921,0.9916,0.9898,0.9885,0.9869,0.9863,0.984,0.9834,0.9824,0.9803,0.9795,0.9769,0.9765,0.9734,0.9735,0.9739,0.9738,0.972,0.9721,0.9665,0.9656,0.9706,0.9705,0.9705,0,0.9946,0.9929,0.9912,0.99,0.9892,0.9873,0.9861,0.9856,0.9843,0.9825,0.9811,0.979,0.9773,0.9738,0.9728,0.9708,0.9707,0.9689,0.9704,0.9705,0.9705,0.9705,0.9702,0.9686,0.9685,0.9685,0.9684,0,0.9903,0.9901,0.9884,0.9866,0.9851,0.9836,0.9822,0.9812,0.9806,0.9791,0.977,0.9757,0.9731,0.9709,0.9689,0.9679,0.968,0.968,0.9675,0.9673,0.9675,0.9672,0.9729,0.9681,0.9681,0.9681,0.9682,0.9682,0.9873,0.9857,0.9843,0.9824,0.9813,0.9799,0.9784,0.9776,0.9758,0.9737,0.9736,0.9712,0.9697,0.967,0.966,0.9641,0.9645,0.9638,0.9635,0.9633,0.9631,0.9681,0.9637,0.9637,0.9637,0.9638,0.9638,0,0.9828,0.982,0.9802,0.9782,0.9767,0.9771,0.9756,0.9742,0.9721,0.9708,0.9691,0.9666,0.9646,0.9635,0.9614,0.9601,0.9601,0.9595,0.9595,0.9592,0.9628,0.9634,0.9596,0.9596,0.9596,0.9596,0.9596,0.9596,0.9803,0.9777,0.9773,0.9741,0.9733,0.971,0.9701,0.9688,0.9677,0.9649,0.9633,0.9626,0.9613,0.9592,0.9573,0.957,0.9561,0.9555,0.9553,0.9586,0.959,0.9594,0.9599,0.9554,0.9554,0.9518,0.9518,0.9517]},{"header":{"parameterUnit":"m.s-1","parameterCategory":1,"la1":30.2991,"la2":30.254,"lo1":-89.0895,"lo2":-89.0444,"dx":0.0017,"dy":0.0017,"nx":28,"ny":28,"refTime":"2022-11-16T15:00:00:Z","depth":0,"parameterNumber":3,"parameterNumberName":"V-component_of_WINDS"},"data":[0,0,0,0,0,0,0,0,0,0,0,0,0,0,0,0,0,0,0,0,0,0,0,0,0,0,0,0,0,0,0,0,0,0,0,0,0,0,0,0,0,0,0,0,0,0,0,0,0,0,0,0,0,0,0,0,0,0,-6.3542,-6.3544,0,-6.3743,-6.3745,-6.3748,-6.3684,-6.368,-6.3675,-6.3671,-6.3873,-6.3882,-6.3891,0,0,0,0,0,0,0,0,0,0,0,0,0,-6.3097,-6.3106,-6.3542,-6.3544,-6.3547,-6.3743,-6.3746,-6.3748,-6.3685,-6.3679,-6.3674,-6.3669,-6.387,-6.3881,-6.3892,0,0,0,0,0,0,0,0,0,0,0,0,0,-6.3293,-6.3108,-6.3541,-6.3539,-6.354,-6.3742,-6.3746,-6.3749,-6.3686,-6.3679,-6.3673,-6.3667,-6.3866,-6.388,-6.3894,-6.4109,0,0,-6.3937,-6.3943,0,0,0,0,0,0,0,0,-6.3282,-6.331,-6.3536,-6.3539,-6.3542,-6.3682,-6.3663,-6.3869,-6.3687,-6.3631,-6.3671,-6.3664,-6.3814,-6.3832,-6.3884,-6.4118,-6.4127,-6.3938,-6.3946,-6.3952,-6.3956,0,0,0,0,0,0,0,-6.3269,-6.3301,-6.3621,-6.354,-6.3543,-6.3526,-6.3547,-6.3702,-6.3756,-6.3635,-6.3631,-6.3656,-6.3814,-6.3871,-6.3888,-6.413,-6.3938,-6.395,-6.3959,-6.3964,-6.455,-6.4557,0,0,0,0,0,0,-6.3254,-6.329,-6.3615,-6.3627,-6.3394,-6.3539,-6.3562,-6.3643,-6.3754,-6.3765,-6.3661,-6.3652,-6.385,-6.3872,-6.3895,-6.4155,-6.3952,-6.3965,-6.3974,-6.4543,-6.4552,-6.4559,0,0,0,0,0,0,-6.3245,-6.3284,-6.3607,-6.3458,-6.3497,-6.3554,-6.3645,-6.3651,-6.3707,-6.3774,-6.3783,-6.3709,-6.3846,-6.3875,-6.4056,-6.4161,-6.3972,-6.3985,-6.4535,-6.4546,-6.4555,-6.4675,0,0,0,0,0,0,-6.3232,-6.3281,-6.3364,-6.346,-6.3506,-6.3767,-6.3651,-6.3659,-6.3732,-6.3722,-6.3821,-6.3831,-6.3843,-6.4036,-6.407,-6.4176,-6.3996,-6.4525,-6.4539,-6.4552,-6.4662,-6.4688,-6.4711,0,0,0,0,0,-6.3217,-6.3389,-6.3369,-6.3409,-6.3611,-6.3773,-6.3799,-6.381,-6.374,-6.3824,-6.3867,-6.3828,-6.4143,-6.4055,-6.4093,-6.4205,-6.4519,-6.4535,-6.4551,-6.4651,-6.4683,-6.471,0,0,0,0,0,0,-6.3303,-6.3402,-6.338,-6.3589,-6.3673,-6.3762,-6.3868,-6.3844,-6.3948,-6.3934,-6.3942,-6.3965,-6.4151,-6.4196,-6.4096,-6.4419,-6.4321,-6.4345,-6.4383,-6.4415,-6.4439,-6.4424,-6.4007,0,0,0,0,0,-6.3346,-6.3471,-6.3549,-6.3726,-6.3769,-6.3811,-6.3882,-6.3884,-6.397,-6.4005,-6.4061,-6.4146,-6.4263,-6.4341,-6.4453,-6.4667,-6.4688,-6.4763,-6.4787,-6.4807,-6.4829,-6.4945,-6.498,-6.4612,-6.4612,-6.4612,0,0,-6.3437,-6.3506,-6.3584,-6.3745,-6.381,-6.3937,-6.3842,-6.398,-6.4074,-6.4026,-6.4201,-6.4245,-6.4339,-6.4538,-6.4628,-6.4581,-6.4935,-6.4828,-6.4843,-6.4854,-6.4965,-6.5,-6.5031,-6.4623,-6.4621,-6.4619,0,0,-6.3668,-6.3733,-6.3887,-6.3955,-6.4055,-6.4082,-6.4119,-6.4212,-6.424,-6.4416,-6.4382,-6.4493,-6.4696,-6.4765,-6.4827,-6.5083,-6.5051,-6.5119,-6.5247,-6.5361,-6.539,-6.5415,-6.5507,-6.554,-6.5139,-6.514,-6.514,0,-6.3768,-6.396,-6.3969,-6.4111,-6.4183,-6.4145,-6.4301,-6.4365,-6.4497,-6.4547,-6.4492,-6.4746,-6.4807,-6.5022,-6.5084,-6.5135,-6.5177,-6.5108,-6.5385,-6.5411,-6.5435,-6.5523,-6.5557,-6.5148,-6.5147,-6.5146,-6.5145,0,-6.4077,-6.4211,-6.4323,-6.4453,-6.4537,-6.4685,-6.4715,-6.4799,-6.4792,-6.4825,-6.5004,-6.5076,-6.5202,-6.5252,-6.5247,-6.5466,-6.5434,-6.5382,-6.5284,-6.5478,-6.556,-6.5594,-6.5159,-6.5156,-6.5154,-6.5152,0,0,-6.4369,-6.4502,-6.4544,-6.4602,-6.471,-6.4813,-6.4958,-6.5083,-6.5155,-6.5246,-6.5368,-6.5541,-6.5494,-6.5564,-6.5565,-6.5665,-6.5864,-6.5601,-6.5603,-6.5648,-6.611,-6.6149,-6.6188,-6.5843,-6.5849,-6.5854,-6.6102,0,-6.461,-6.4868,-6.488,-6.5115,-6.5238,-6.5204,-6.533,-6.541,-6.5443,-6.5551,-6.5587,-6.571,-6.5638,-6.568,-6.5777,-6.5819,-6.5957,-6.5801,-6.5955,-6.5961,-6.5935,-6.6231,-6.6273,-6.6504,-6.6134,-6.614,-6.6144,0,-6.4925,-6.5028,-6.5276,-6.5366,-6.5418,-6.5533,-6.5648,-6.5752,-6.584,-6.5857,-6.5936,-6.5923,-6.6071,-6.5967,-6.617,-6.6064,-6.6127,-6.6157,-6.6166,-6.6182,-6.6065,-6.6256,-6.6578,-6.6613,-6.6194,-6.619,-6.6187,0,-6.5114,-6.5315,-6.5489,-6.554,-6.5649,-6.573,-6.5779,-6.5862,-6.5936,-6.6036,-6.6084,-6.6199,-6.6263,-6.6351,-6.6369,-6.6292,-6.6573,-6.647,-6.6591,-6.6591,-6.6653,-6.6649,-6.6991,-6.6692,-6.6691,-6.6691,-6.669,0,-6.5382,-6.5535,-6.5575,-6.5683,-6.5852,-6.5864,-6.6031,-6.6074,-6.6147,-6.6261,-6.6237,-6.6344,-6.6361,-6.6472,-6.6486,-6.6652,-6.6681,-6.6698,-6.6701,-6.6702,-6.67,-6.6744,-6.6729,-6.67,-6.6698,-6.6696,-6.6694,0,-6.5623,-6.5656,-6.5844,-6.5933,-6.5958,-6.608,-6.6154,-6.6256,-6.6287,-6.6431,-6.6466,-6.6513,-6.6642,-6.6669,-6.6821,-6.683,-6.7028,-6.7014,-6.6999,-6.6998,-6.7118,-6.7107,-6.7502,-6.7554,-6.722,-6.7223,-6.7226,0,-6.5793,-6.591,-6.6011,-6.6087,-6.614,-6.6262,-6.6338,-6.6353,-6.6433,-6.6542,-6.6631,-6.6757,-6.6859,-6.7066,-6.7114,-6.7229,-6.7218,-6.7349,-6.7236,-6.7233,-6.7222,-6.7215,-6.7227,-6.7371,-6.7374,-6.7377,-6.738,0,-6.6091,-6.6101,-6.6213,-6.6331,-6.6423,-6.6515,-6.6603,-6.6666,-6.6692,-6.6783,-6.6916,-6.6995,-6.7151,-6.7277,-6.7393,-6.7441,-6.7416,-6.7415,-6.7449,-6.7452,-6.7439,-6.7449,-6.706,-6.7406,-6.7403,-6.7401,-6.74,-6.7399,-6.6302,-6.6405,-6.6492,-6.6617,-6.6685,-6.6768,-6.6869,-6.6912,-6.7024,-6.7153,-6.7154,-6.7299,-6.7383,-6.7536,-6.7592,-6.7704,-6.7663,-6.7712,-6.7725,-6.7738,-6.7749,-6.742,-6.7725,-6.7724,-6.7723,-6.7723,-6.7722,0,-6.66,-6.6654,-6.6769,-6.6894,-6.6992,-6.696,-6.7056,-6.714,-6.7268,-6.7349,-6.7451,-6.7602,-6.7724,-6.7781,-6.79,-6.7979,-6.797,-6.801,-6.8005,-6.8017,-6.7779,-6.7738,-6.8016,-6.8015,-6.8015,-6.8015,-6.8015,-6.8015,-6.6766,-6.6938,-6.6959,-6.7164,-6.7217,-6.736,-6.7418,-6.7494,-6.7559,-6.773,-6.7832,-6.7868,-6.794,-6.8064,-6.8174,-6.8187,-6.8233,-6.8279,-6.8287,-6.8063,-6.8034,-6.8005,-6.7967,-6.8288,-6.8289,-6.8516,-6.8518,-6.8519]}]]